THOR ABLESTAR DEB, 127

Orbit data source: Space-Track

THOR ABLESTAR DEB, 127 is space debris in LEO originally from a launch on Thu, 29 Jun 1961 UTC launched from the Air Force Eastern Test Range (AFETR). Debris objects in space refer to the collection of defunct objects orbiting the Earth. Examples of debris include non-operational satellites, rocket bodies, and fragments generated from explosions, collisions, or faulty payload assembly.

Loading next visibility...
Identifier
127, 1961-015M
Orbit
LEO
Country
Flag of USUS
Related business
Manufacturer
Unknown
Mission
Spacecraft
Bus & Motor
Unknown
Mass
Unknown
Launch date (UTC)
1961-06-29 (65 years ago)
Launch vehicle
Unknown
Launch site
Air Force Eastern Test Range (AFETR)
Object type
Payload
Rocket body
Debris
Shape & HBR
Unknown shape, 0.5 m
Radar Cross Section
Medium (>0.1 m² and <1 m²)

Expand to show TLE details & history
Last TLE update: 8 hours ago

TLE from 8 hours ago
0 THOR ABLESTAR DEB
1 00127U 61015M   26166.59217134  .00001125  00000-0  31595-3 0  9991
2 00127  66.8286 309.6745 0062450   0.7506 359.3685 14.48568325366625
Epoch: 2026-06-15T14:12Z
TLE epoch observation values (Epoch: 2026-06-15T14:12:43.603Z)
Latitude
-0.00001°
Longitude
-167.38353°
Altitude
688.069 km
Speed
7.536 km/s
True Right ascension
20h 38m 41s
True Declination
0° 00' 00"
Sunlit
Object was in full shadow at epoch
Visualization orbit readout
Latitude
Unknown
Longitude
Unknown
Altitude
Unknown
Speed
Unknown
Apparent Right ascension
Unknown
Apparent Declination
Unknown
Sunlit
N/A
Visualization observer readout
Local Sidereal Time
08:41:26
Azimuth
Unknown
Elevation
Unknown
Doppler factor
Unknown
Orbital elements
Apogee altitude
773.056 km
Perigee altitude
684.292 km
Semi-major axis
7,106.811 km
Eccentricity
0.00625
Inclination
66.8286°
RAAN
309.6745°
Arg. of periapsis
0.7506°
True anomaly
359.36055°
Mean anomaly
359.3685°
Eccentric anomaly
359.36453°
Mean motion
3.62269 °/min
Orbital period
99.37 mins
BSTAR
0.00031595

Documentation

Showing up to 5 results
|